Location: Captains Knoll
(38.3526°N, 75.1155°W)
Time: 00:43:32
(UTC+00:00)

Daily predictions for brighter satellites

Satellite Brightness Start Highest point End
(mag) Time Altitude Azimuth Time Altitude Azimuth Time Altitude Azimuth
MOS 1 Rocket 3.0 00:00:04 10° NNE 00:04:30 68° E 00:08:45 10° S
Cosmos 1975 Rocket 2.9 00:01:23 10° N 00:05:43 73° E 00:10:00 10° SSE
Cosmos 2084 Rocket 3.5 00:02:18 10° NNW 00:06:46 68° NE 00:10:14 17° SE
USA 234 3.5 00:00:35 10° ENE 00:06:48 44° SE 00:12:59 10° SSW
SJ-6B 4.0 00:08:41 21° E 00:09:05 21° ENE 00:11:58 10° NNE
Cosmos 1707 3.2 00:05:34 10° N 00:09:09 37° E 00:11:20 20° SE
Cosmos 2034 Rocket 4.4 00:08:10 10° SSE 00:14:04 42° E 00:20:00 10° NNE
Sich 1 Rocket 3.6 00:12:18 10° S 00:16:47 89° WNW 00:21:19 10° N
ISS -3.2 00:14:16 10° WSW 00:17:35 57° NW 00:20:13 15° NE
MINOTAUR IV R/B 4.5 00:14:16 10° NNW 00:18:46 78° ENE 00:22:19 16° SSE
H-2A R/B 2.0 00:15:13 10° SSE 00:20:08 84° WSW 00:25:11 10° NNW
In-Cosmos 22 4.3 00:18:06 10° N 00:23:12 46° ENE 00:26:19 22° SE
ARGOS 3.0 00:18:36 10° SSE 00:23:56 79° ENE 00:29:19 10° N
Cosmos 1174 4.4 00:22:00 10° SSW 00:26:30 61° ESE 00:32:14 10° NE
Cosmos 1437 4.2 00:25:59 10° NNW 00:28:45 34° W 00:31:29 10° SSW
SL-08 RB Rocket 3.7 00:27:10 19° SSE 00:30:21 65° ENE 00:34:54 10° N
CZ-2C R/B 2.7 00:26:14 10° NNE 00:31:44 60° E 00:37:15 10° S
MOS 1 4.4 00:31:18 25° SE 00:34:26 52° ENE 00:39:57 10° N
Milstar 3 Cent rocket 3.5 00:31:50 10° SW 00:36:26 20° S 00:37:15 20° SSE
Okean 2 Rocket 3.1 00:32:04 10° S 00:36:34 86° W 00:41:05 10° N
Cosmos 1844 3.9 00:31:46 10° S 00:37:09 44° ESE 00:42:31 10° NE
ATLAS 2AS CENTAUR R/B 3.7 00:34:52 10° SSE 00:46:15 16° ENE 00:48:02 10° NE
Cosmos 2263 Rocket 4.3 00:36:53 10° WSW 00:41:34 27° WNW 00:46:19 10° N
DELTA 2 R/B (1) 3.7 00:39:29 10° W 00:44:58 62° SSW 00:46:52 39° SE
Cosmos 1844 Rocket 2.5 00:42:51 10° SSW 00:48:22 70° ESE 00:53:56 10° NNE
Cosmos 1300 Rocket 4.0 00:44:19 10° SSW 00:48:39 63° W 00:53:03 10° N
Cosmos 2285 Rocket 4.0 00:46:24 10° S 00:52:27 53° ESE 00:58:35 10° NNE
Ariane Rocket 2.9 00:50:37 30° SSE 00:53:10 89° E 00:58:16 10° NNW
USA 186 2.4 00:54:52 51° WNW 00:54:52 51° WNW 00:57:39 10° NNW
CENTAUR R/B 3.8 00:50:01 10° NNW 00:57:31 38° NE 01:00:06 32° E
IRS-1A Rocket 4.4 00:55:24 23° SSE 00:59:14 84° WSW 01:05:10 10° NNW
Exosat Rocket 3.5 00:54:40 10° SSW 01:00:46 71° ESE 01:05:48 10° NNE
ATLAS 3B R/B 4.5 00:59:01 10° N 01:02:53 15° NNE 01:04:32 14° NE
Meteor 1-15 Rocket 4.1 00:57:48 10° S 01:03:23 80° E 01:09:04 10° NNE
Cosmos 2298 Rocket 4.4 00:58:22 10° SSW 01:03:38 64° WNW 01:08:57 10° NNE
SPOT 3 Rocket 3.8 01:05:38 49° NE 01:05:38 49° NE 01:10:10 10° N
USA 238 DEB 4.1 00:59:09 10° NNW 01:06:17 54° NE 01:07:59 46° E
USA 238 4.1 00:59:16 10° NNW 01:06:23 54° NE 01:08:04 46° E
MetOp-A 4.1 01:07:55 47° S 01:09:31 84° WSW 01:14:55 10° NNW
Cosmos 1536 Rocket 3.6 01:05:21 10° N 01:09:48 77° W 01:09:59 75° SW
OBJECT-B 3.4 01:14:11 15° N 01:14:11 15° N 01:14:51 10° N
Cosmos 1092 Rocket 3.9 01:07:51 10° N 01:13:58 62° E 01:14:15 62° E
Cosmos 2195 Rocket 4.5 01:10:54 10° N 01:16:53 58° ENE 01:16:53 58° ENE
Cosmos 1867 4.0 01:15:01 10° NW 01:20:21 56° WSW 01:21:23 48° SSW
Meteor 2-13 Rocket 4.3 01:14:44 10° N 01:20:54 74° E 01:21:15 72° ESE
Cosmos 2026 Rocket 4.2 01:15:01 10° N 01:20:38 52° ENE 01:20:38 52° ENE
Cosmos 1025 Rocket 4.3 01:18:33 10° NNW 01:22:37 38° W 01:23:50 31° SW
CZ-2C R/B 3.5 01:21:08 10° W 01:22:04 17° WSW 01:22:04 17° WSW
NOSS 3-2 (A) 4.0 01:26:50 10° NNW 01:34:38 85° ENE 01:36:11 64° SE
Meteor 2-5 Rocket 4.0 01:33:31 10° N 01:38:03 59° N 01:38:03 59° N
BREEZE-M DEB (TANK) 3.8 01:37:03 10° WNW 01:41:17 81° SW 01:42:24 66° SSE
Cosmos 1125 Rocket 4.5 01:38:48 10° SW 01:43:52 45° WNW 01:48:58 10° N
Resurs 01 Rocket 3.5 01:49:34 26° NNW 01:49:34 26° NNW 01:51:32 10° NNW
USA 234 3.9 01:43:31 10° NE 01:49:49 52° NW 01:56:06 10° WSW
NOSS 3-2 (C) 4.0 02:01:08 10° NNW 02:08:32 83° NNW 02:08:32 83° NNW
ATLAS 2AS CENTAUR R/B 3.5 02:24:08 10° SW 02:33:18 55° NNW 02:39:49 10° NNE
CENTAUR R/B 3.7 02:40:30 10° NW 02:47:17 54° W 02:47:17 54° W
ATLAS 3B R/B 4.1 02:48:10 10° NNW 02:51:46 32° NNW 02:51:46 32° NNW
Cosmos 1697 Rocket 4.0 07:37:49 36° NNE 07:37:49 36° NNE 07:41:07 10° NNE
Cosmos 1980 Rocket 3.4 07:40:43 39° E 07:40:43 39° E 07:45:06 10° NE
USA 267 3.7 07:58:06 10° NE 08:04:15 46° NW 08:04:18 46° NW
Lacrosse 5 3.0 08:09:35 36° N 08:09:35 36° N 08:12:58 10° NNE
Cosmos 1821 Rocket 4.0 08:04:42 10° N 08:10:11 68° NNW 08:10:11 68° NNW
Cosmos 921 Rocket 4.4 08:18:19 34° E 08:18:19 34° E 08:22:05 10° NE
Cosmos 44 3.9 08:20:09 49° NE 08:20:09 49° NE 08:23:35 10° NE
Cosmos 2228 Rocket 3.8 08:23:48 48° E 08:23:58 48° E 08:28:12 10° NNE
ADEOS II 3.9 08:20:21 10° NNW 08:22:10 19° NNW 08:22:10 19° NNW
Cosmos 1934 Rocket 4.0 08:19:33 10° N 08:25:38 75° E 08:31:42 10° SSE
Nadezhda 3 Rocket 4.4 08:32:55 43° NW 08:32:55 43° NW 08:37:53 10° N
Cosmos 2278 3.7 08:34:00 62° WNW 08:34:00 62° WNW 08:39:37 10° NNE
USA 234 3.4 08:30:24 10° ESE 08:36:53 71° NE 08:43:23 10° NW
X-37B 3.0 08:38:14 20° NNE 08:38:14 20° NNE 08:39:55 10° NE
IDEFIX/ARIANE 42P 2.8 08:32:18 10° N 08:36:52 52° NW 08:36:52 52° NW
MSX 3.7 08:34:35 10° N 08:40:23 78° WNW 08:41:48 53° SSW
Timation 1 Rocket 4.4 08:35:06 10° NNW 08:41:08 79° ENE 08:47:07 10° SSE
ARIANE 5 R/B 3.6 08:39:55 10° N 08:43:09 29° NW 08:43:09 29° NW
CZ-3B R/B 4.2 08:44:41 13° NNW 08:46:07 16° N 08:50:12 10° NE
USA 305 4.5 08:47:19 24° NNW 08:47:19 24° NNW 08:50:30 10° NNE
Cosmos 1605 Rocket 4.2 08:42:29 10° N 08:48:54 74° E 08:55:17 10° SSE
Cosmos 1535 Rocket 4.4 08:43:25 10° N 08:49:48 75° W 08:56:09 10° S
ERS-2 3.2 08:52:22 10° SE 08:55:51 44° ENE 08:59:21 10° N
SJ 16-02 2.3 08:56:23 10° N 09:00:39 47° ENE 09:04:53 10° SE
H-2A R/B 1.9 08:57:53 10° S 09:02:12 78° WSW 09:06:38 10° NNW
PSLV R/B 3.4 08:59:09 10° NNE 09:03:22 89° E 09:05:14 32° SSW
Cosmos 1763 Rocket 4.1 08:58:51 11° S 09:03:54 58° ESE 09:09:07 10° NNE
Cosmos 1812 2.6 09:12:51 48° SW 09:13:38 61° W 09:17:27 10° N
Cosmos 2360 Rocket 4.0 09:09:01 10° SSE 09:13:51 30° ESE 09:18:43 10° NE
ASTEX 1 4.5 09:10:32 10° NNW 09:14:18 26° WNW 09:14:18 26° WNW
CZ-2C R/B 2.4 09:13:05 10° N 09:18:13 72° WNW 09:23:04 12° SSW
Cosmos 1727 Rocket 4.0 09:11:51 10° S 09:18:13 88° W 09:24:35 10° N
BREEZE-M DEB (TANK) 4.0 09:17:25 23° NW 09:18:28 28° N 09:23:39 10° NE
BREEZE-M DEB (TANK) 3.2 09:13:55 26° WSW 09:18:48 79° NNW 09:22:11 10° ENE
Cosmos 1697 Rocket 4.3 09:19:34 16° WNW 09:20:05 16° NW 09:23:27 10° NNW
ERBS 2.6 09:21:44 44° WNW 09:22:10 47° NW 09:25:26 10° NNE
SL-4 R/B 2.7 09:19:51 24° SSW 09:22:28 61° SE 09:27:10 10° ENE
Cosmos 1500 3.2 09:19:18 10° NNW 09:23:02 52° W 09:26:45 10° S
PAYLOAD A 3.9 09:19:21 10° N 09:23:53 52° WNW 09:26:51 21° SW
Cosmos 1980 Rocket 3.2 09:22:31 24° W 09:23:54 27° WNW 09:28:40 10° N
CZ-4B R/B 2.1 09:22:41 10° SSE 09:25:41 50° ENE 09:28:46 10° N
Landsat 5 4.1 09:24:03 10° SSW 09:28:15 38° W 09:32:29 10° NNW
Cosmos 468 Rocket 3.9 09:24:09 13° SSW 09:28:51 73° WNW 09:34:09 10° NNE
Cosmos 1666 2.9 09:25:08 10° N 09:28:58 73° E 09:32:44 10° SSE
Cosmos 2322 Rocket 2.3 09:23:31 10° SSW 09:29:09 80° ESE 09:34:52 10° NNE
Cosmos 990 Rocket 4.3 09:24:32 10° NNW 09:29:43 69° ENE 09:34:54 10° SSE
BREEZE M DEB (TANK) 3.5 09:18:04 10° NW 09:30:10 81° NNE 09:33:51 10° ESE
Meteor 1-10 Rocket 4.4 09:25:30 10° SSW 09:31:06 56° WNW 09:36:51 10° N
FENGYUN 3A 4.1 09:27:01 10° NNE 09:32:23 63° E 09:37:43 10° S
Cosmos 44 Rocket 4.4 09:30:16 10° S 09:34:39 41° ESE 09:39:09 10° NE
Cosmos 2263 Rocket 2.1 09:30:31 10° NNW 09:36:11 77° WSW 09:41:50 10° SSE
Cosmos 540 Rocket 4.1 09:31:32 10° S 09:36:33 57° ESE 09:41:37 10° NNE
SL-16 R/B 2.1 09:31:24 10° SSW 09:37:01 72° WNW 09:42:42 10° NNE
Cosmos 1459 Rocket 4.2 09:38:42 10° N 09:44:48 72° E 09:50:48 10° SSE
Cosmos 2227 4.2 09:42:35 10° NNW 09:48:06 56° WSW 09:53:34 10° S
deb Chang Zheng 4 3.5 09:45:17 10° N 09:49:32 61° WNW 09:53:43 10° SSW
CZ-4B R/B 3.9 09:47:16 10° NNE 09:50:46 43° E 09:54:11 10° S
CZ-4B R/B 4.1 09:46:48 10° NNE 09:51:10 87° ESE 09:55:36 10° SSW
SAR-Lupe-4 3.5 09:48:15 10° S 09:51:49 80° WSW 09:55:26 10° NNW
Lacrosse 5 4.0 09:49:32 10° NW 09:52:08 14° NNW 09:54:44 10° N
Cosmos 1707 Rocket 3.9 09:51:53 10° SSW 09:55:57 41° WNW 10:00:04 10° N
Cosmos 1898 Rocket 3.5 09:53:43 10° NNW 09:58:57 70° WSW 10:04:11 10° S
Okean 1 4.5 09:57:35 10° SSE 10:01:28 49° E 10:05:23 10° NNE
Cosmos 1743 4.0 09:58:23 10° N 10:02:03 45° E 10:05:42 10° SSE
Cosmos 2208 Rocket 4.1 09:58:35 10° SSW 10:03:51 83° ESE 10:09:05 10° NNE
SAR-Lupe-1 4.1 10:00:38 10° S 10:04:07 56° WSW 10:07:40 10° NNW
Cosmos 2219 Rocket 4.4 10:00:49 10° SSE 10:05:34 28° ESE 10:10:21 10° NE
ATLAS 2AS CENTAUR R/B 3.8 10:00:07 10° NNW 10:07:18 49° NE 10:13:54 10° SE
Cosmos 1689 Rocket 2.0 10:06:45 10° SSE 10:09:42 88° ENE 10:12:40 10° NNW
USA 32 4.5 10:04:54 10° NNW 10:09:46 40° W 10:14:37 10° SSW
Meteor 1-4 Rocket 4.3 10:09:31 10° WSW 10:11:22 14° WNW 10:13:20 10° NW
Cosmos 858 Rocket 4.4 10:06:18 10° NNW 10:11:30 76° WSW 10:16:40 10° S
ADEOS 4.0 10:07:48 10° N 10:12:39 40° WNW 10:17:29 10° SW
SKYMED 2 3.9 10:09:07 10° SSE 10:13:26 74° ENE 10:17:46 10° N
Cosmos 2333 Rocket 3.9 10:08:22 10° S 10:13:36 37° ESE 10:18:52 10° NE
PKM 4.5 10:10:54 10° NW 10:14:21 62° NE 10:19:00 10° SE
X-37B 2.0 10:11:30 10° NW 10:14:26 33° NNE 10:17:22 10° E
USA 281 4.4 10:08:10 10° NE 10:14:28 47° ESE 10:20:44 10° S
Cosmos 2173 Rocket 4.1 10:09:01 10° NNW 10:15:17 64° W 10:21:32 10° S
Cosmos 1536 3.3 10:12:50 10° NNW 10:16:38 38° W 10:20:24 10° SSW
Cosmos 1733 Rocket 3.1 10:14:15 10° NNW 10:18:30 54° W 10:22:42 10° S
Cosmos 1484 Rocket 3.6 10:15:49 10° N 10:19:24 33° WNW 10:23:00 10° SW
ADEOS Rocket 3.7 10:13:02 10° SSW 10:19:30 38° W 10:25:25 10° NNW
USA 234 4.1 10:14:39 10° S 10:20:10 29° SW 10:25:43 10° WNW
